Location: Newark
(36.1358°N, 115.1208°W)
Time: 21:27:46
(UTC+00:00)

Vanguard 1 Rocket - Pass Details

Date: 18 February 2020
Orbit: 650 x 4226 km, 34.3° (Epoch: 09 April)

Event Time Altitude Azimuth Distance (km) Brightness Sun altitude
Rises 12:26:27 0° 260° (W) 3,606 - -24.6°
Reaches altitude 10° 12:29:22 10° 258° (WSW) 2,381 - -24.0°
Exits shadow 12:33:49 61° 222° (SW) 765 6.7 -23.1°
Maximum altitude 12:34:24 69° 175° (S) 710 6.7 -23.0°
Drops below altitude 10° 12:38:46 10° 92° (E) 2,069 10.4 -22.1°
Sets 12:41:08 0° 90° (E) 3,082 11.7 -21.6°
